Location: Newark
(58.9986°N, 38.5006°E)
Time: 07:58:53
(UTC+00:00)

N. Korean satellite - Pass Details

Date: 08 December 2019
Orbit: 454 x 508 km, 97.2° (Epoch: 18 January)

Event Time Altitude Azimuth Distance (km) Brightness Sun altitude
Rises 02:39:41 0° 22° (NNE) 2,584 10.5 -24.1°
Reaches altitude 10° 02:42:04 10° 36° (NE) 1,686 9.7 -23.8°
Maximum altitude 02:45:05 24° 92° (E) 1,037 9.0 -23.4°
Drops below altitude 10° 02:48:01 10° 149° (SSE) 1,647 9.7 -23.1°
Sets 02:50:20 0° 163° (SSE) 2,510 10.5 -22.8°
